• In Moldova, Republic
  • List of Countries
  • For 7 days
  • Water Temperature
  • Satellite Maps
  • Weather Map
  • Weather Widgets
  • user-avatar
    Login

    Hourly Weather Oran

    Today, 27 March, Monday

    Time Temperature Precipitation Wind Pressure Humidity
    00:00 +12°C° 0 mm 4 mps 751 mmHg 91%
    01:00 +12°C° 0 mm 4 mps 752 mmHg 92%
    02:00 +11°C° 0 mm 4 mps 752 mmHg 92%
    03:00 +11°C° 0 mm 4 mps 753 mmHg 93%
    04:00 +11°C° 0 mm 4 mps 753 mmHg 92%
    05:00 +11°C° 0 mm 4 mps 754 mmHg 92%
    06:00 +10°C° 0 mm 4 mps 754 mmHg 91%
    07:00 +12°C° 0 mm 4 mps 755 mmHg 82%
    08:00 +14°C° 0 mm 4 mps 755 mmHg 73%
    09:00 +17°C° 0 mm 4 mps 756 mmHg 64%
    10:00 +18°C° 0 mm 4 mps 756 mmHg 59%
    11:00 +19°C° 0 mm 4 mps 756 mmHg 55%
    12:00 +20°C° 0 mm 4 mps 756 mmHg 50%
    13:00 +20°C° 0 mm 4 mps 756 mmHg 49%
    14:00 +21°C° 0 mm 4 mps 756 mmHg 48%
    15:00 +21°C° 0 mm 4 mps 755 mmHg 47%
    16:00 +19°C° 0 mm 3 mps 756 mmHg 54%
    17:00 +18°C° 0 mm 3 mps 756 mmHg 60%
    18:00 +16°C° 0 mm 2 mps 756 mmHg 67%
    19:00 +14°C° 0 mm 2 mps 756 mmHg 73%
    20:00 +13°C° 0 mm 1 mps 756 mmHg 80%
    21:00 +11°C° 0 mm 1 mps 757 mmHg 86%
    22:00 +11°C° 0 mm 1 mps 757 mmHg 86%
    23:00 +10°C° 0 mm 1 mps 757 mmHg 85%

    Tomorrow, 28 March, Tuesday

    Time Temperature Precipitation Wind Pressure Humidity
    00:00 +10°C° 0 mm 1 mps 757 mmHg 85%
    01:00 +10°C° 0 mm 1 mps 757 mmHg 85%
    02:00 +9°C° 0 mm 1 mps 757 mmHg 85%
    03:00 +9°C° 0 mm 1 mps 757 mmHg 84%
    04:00 +9°C° 0 mm 1 mps 757 mmHg 85%
    05:00 +9°C° 0 mm 1 mps 757 mmHg 85%
    06:00 +8°C° 0 mm 1 mps 757 mmHg 85%
    07:00 +12°C° 0 mm 1 mps 758 mmHg 72%
    08:00 +15°C° 0 mm 1 mps 758 mmHg 60%
    09:00 +19°C° 0 mm 1 mps 759 mmHg 47%
    10:00 +21°C° 0 mm 1 mps 759 mmHg 44%
    11:00 +21°C° 0 mm 2 mps 759 mmHg 40%
    12:00 +23°C° 0 mm 2 mps 759 mmHg 37%
    13:00 +22°C° 0 mm 3 mps 758 mmHg 39%
    14:00 +22°C° 0 mm 3 mps 758 mmHg 41%
    15:00 +22°C° 0 mm 4 mps 758 mmHg 43%
    16:00 +20°C° 0 mm 3 mps 758 mmHg 51%
    17:00 +18°C° 0 mm 3 mps 758 mmHg 58%
    18:00 +17°C° 0 mm 2 mps 758 mmHg 66%
    19:00 +15°C° 0 mm 2 mps 759 mmHg 72%
    20:00 +13°C° 0 mm 2 mps 759 mmHg 79%
    21:00 +10°C° 0 mm 2 mps 760 mmHg 85%
    22:00 +10°C° 0 mm 2 mps 760 mmHg 85%
    23:00 +11°C° 0 mm 1 mps 759 mmHg 84%

    Day after tomorrow, 29 March, Wednesday

    Time Temperature Precipitation Wind Pressure Humidity
    00:00 +11°C° 0 mm 1 mps 759 mmHg 83%
    01:00 +10°C° 0 mm 1 mps 759 mmHg 83%
    02:00 +10°C° 0 mm 1 mps 759 mmHg 83%
    03:00 +10°C° 0 mm 1 mps 759 mmHg 83%
    04:00 +9°C° 0 mm 2 mps 759 mmHg 83%
    05:00 +9°C° 0 mm 2 mps 759 mmHg 83%
    06:00 +9°C° 0 mm 2 mps 759 mmHg 83%
    07:00 +13°C° 0 mm 2 mps 759 mmHg 70%
    08:00 +16°C° 0 mm 2 mps 759 mmHg 57%
    09:00 +20°C° 0 mm 2 mps 760 mmHg 45%
    10:00 +21°C° 0 mm 3 mps 759 mmHg 40%
    11:00 +22°C° 0 mm 4 mps 759 mmHg 35%
    12:00 +25°C° 0 mm 4 mps 759 mmHg 30%
    13:00 +25°C° 0 mm 5 mps 758 mmHg 31%
    14:00 +25°C° 0 mm 5 mps 758 mmHg 31%
    15:00 +24°C° 0 mm 6 mps 757 mmHg 32%
    16:00 +22°C° 0 mm 6 mps 757 mmHg 39%
    17:00 +20°C° 0 mm 6 mps 757 mmHg 46%
    18:00 +17°C° 0 mm 6 mps 757 mmHg 53%
    19:00 +15°C° 0 mm 5 mps 757 mmHg 59%
    20:00 +13°C° 0 mm 5 mps 758 mmHg 66%
    21:00 +12°C° 0 mm 4 mps 759 mmHg 73%
    22:00 +11°C° 0 mm 4 mps 758 mmHg 73%
    23:00 +11°C° 0 mm 3 mps 758 mmHg 73%

    30 March, Thursday

    Time Temperature Precipitation Wind Pressure Humidity
    00:00 +11°C° 0 mm 3 mps 758 mmHg 73%
    01:00 +11°C° 0 mm 3 mps 758 mmHg 73%
    02:00 +10°C° 0 mm 3 mps 757 mmHg 72%
    03:00 +10°C° 0 mm 3 mps 757 mmHg 72%
    04:00 +10°C° 0 mm 3 mps 757 mmHg 71%
    05:00 +10°C° 0 mm 3 mps 757 mmHg 69%
    06:00 +10°C° 0 mm 3 mps 757 mmHg 68%
    07:00 +14°C° 0 mm 3 mps 757 mmHg 57%
    08:00 +18°C° 0 mm 3 mps 757 mmHg 45%
    09:00 +22°C° 0 mm 3 mps 758 mmHg 34%
    10:00 +24°C° 0 mm 3 mps 757 mmHg 31%
    11:00 +26°C° 0 mm 3 mps 757 mmHg 29%
    12:00 +28°C° 0 mm 3 mps 757 mmHg 26%
    13:00 +27°C° 0 mm 4 mps 756 mmHg 28%
    14:00 +27°C° 0 mm 4 mps 756 mmHg 29%
    15:00 +27°C° 0 mm 5 mps 755 mmHg 31%
    16:00 +25°C° 0 mm 4 mps 755 mmHg 39%
    17:00 +22°C° 0 mm 4 mps 756 mmHg 47%
    18:00 +19°C° 0 mm 3 mps 756 mmHg 55%
    19:00 +18°C° 0 mm 3 mps 756 mmHg 59%
    20:00 +17°C° 0 mm 2 mps 757 mmHg 62%
    21:00 +16°C° 0 mm 2 mps 757 mmHg 66%
    22:00 +15°C° 0 mm 1 mps 757 mmHg 68%
    23:00 +14°C° 0 mm 1 mps 756 mmHg 70%

    31 March, Friday

    Time Temperature Precipitation Wind Pressure Humidity
    00:00 +13°C° 0 mm 1 mps 756 mmHg 73%
    01:00 +13°C° 0 mm 1 mps 756 mmHg 74%
    02:00 +13°C° 0 mm 1 mps 756 mmHg 75%
    03:00 +13°C° 0 mm 1 mps 755 mmHg 76%
    04:00 +12°C° 0 mm 1 mps 755 mmHg 76%
    05:00 +12°C° 0 mm 1 mps 755 mmHg 76%
    06:00 +12°C° 0 mm 1 mps 756 mmHg 76%
    07:00 +15°C° 0 mm 1 mps 756 mmHg 64%
    08:00 +20°C° 0 mm 1 mps 756 mmHg 52%
    09:00 +24°C° 0 mm 1 mps 756 mmHg 40%
    10:00 +25°C° 0 mm 2 mps 756 mmHg 38%
    11:00 +26°C° 0 mm 3 mps 756 mmHg 37%
    12:00 +27°C° 0 mm 4 mps 756 mmHg 35%
    13:00 +27°C° 0 mm 4 mps 755 mmHg 35%
    14:00 +26°C° 0 mm 4 mps 755 mmHg 36%
    15:00 +26°C° 0 mm 4 mps 755 mmHg 36%
    16:00 +23°C° 0 mm 4 mps 755 mmHg 42%
    17:00 +21°C° 0 mm 4 mps 754 mmHg 48%
    18:00 +19°C° 0 mm 3 mps 754 mmHg 54%
    19:00 +19°C° 0 mm 4 mps 755 mmHg 53%
    20:00 +18°C° 0 mm 4 mps 755 mmHg 52%
    21:00 +17°C° 0 mm 4 mps 755 mmHg 52%
    22:00 +16°C° 0 mm 5 mps 755 mmHg 52%
    23:00 +16°C° 0 mm 5 mps 755 mmHg 52%

    1 April, Saturday

    Time Temperature Precipitation Wind Pressure Humidity
    00:00 +15°C° 0 mm 6 mps 755 mmHg 52%
    01:00 +15°C° 0 mm 6 mps 754 mmHg 56%
    02:00 +15°C° 0 mm 6 mps 754 mmHg 61%
    03:00 +15°C° 0 mm 6 mps 754 mmHg 66%
    04:00 +14°C° 0 mm 5 mps 754 mmHg 69%
    05:00 +14°C° 0 mm 5 mps 754 mmHg 72%
    06:00 +13°C° 0 mm 4 mps 755 mmHg 75%
    07:00 +15°C° 0.1 mm 5 mps 755 mmHg 69%
    08:00 +17°C° 0.1 mm 5 mps 755 mmHg 63%
    09:00 +20°C° 0.1 mm 6 mps 755 mmHg 56%
    10:00 +21°C° 0 mm 6 mps 755 mmHg 53%
    11:00 +21°C° 0 mm 7 mps 755 mmHg 50%
    12:00 +22°C° 0 mm 7 mps 755 mmHg 47%
    13:00 +22°C° 0 mm 6 mps 754 mmHg 46%
    14:00 +22°C° 0 mm 6 mps 754 mmHg 45%
    15:00 +21°C° 0 mm 5 mps 754 mmHg 44%
    16:00 +20°C° 0 mm 5 mps 754 mmHg 49%
    17:00 +19°C° 0 mm 4 mps 754 mmHg 54%
    18:00 +17°C° 0 mm 3 mps 754 mmHg 59%
    19:00 +16°C° 0 mm 3 mps 754 mmHg 62%
    20:00 +14°C° 0 mm 3 mps 755 mmHg 64%
    21:00 +13°C° 0 mm 4 mps 755 mmHg 66%
    22:00 +12°C° 0 mm 4 mps 755 mmHg 62%
    23:00 +12°C° 0 mm 4 mps 755 mmHg 57%
    Show more